Weather in Kuanpamash

Russia / Mari El Republic     57°04′53″N   48°34′01″E
temp.,
°C
wind,
m/s
gust,
m/s
humid.,
%
clouds,
%
prec.,
mm/h
press.,
hPa
HPBL,
m
3 march, wed
wed300:00−6w369798 0.1 998126
03:00−3w489798 0.6 999329
06:00−5nw61196100 0.7 999517
09:00−5nnw71195100 1.3 1001625
12:00−5nw6989100 0.2 1002657
15:00−5wnw7987100 0.3 1003783
18:00−6wnw61091100 0.1 1003684
21:00−7w51091100 0.3 1004635
4 march, thu
thu400:00−7wsw61095100 0.3 1001382
03:00−6sw6129599 0.9 999462
06:00−5sw61295100 0.3 996439
09:00−3sw81295100 1.1 994799
12:00−2sw61096100 0.7 990666
15:00−1sw61194100 1.9 988805
18:00−2wnw81584100 1.7 990864
21:00−5wnw7139393 1.8 994551
5 march, fri
fri500:00−9nw499493 0.1 997182
03:00−13nw349749 0.1 99954
06:00−16nnw34920 0.0 100232
09:00−14nnw35890 0.0 1003191
12:00−10nw35830 0.0 1004350
15:00−9wnw36860 0.0 1006457
18:00−12wsw34910 0.0 100727
21:00−11wsw369645 0.1 1008105
6 march, sat
sat600:00−12wsw479699 0.1 1010149
03:00−15wsw449894 0.2 101180
06:00−15sw349895 0.1 101178
09:00−12sw359596 0.2 1011207
12:00−9w238998 0.2 1011408
15:00−9nnw339199 0.3 1009369
18:00−13nw349589 0.1 100958
21:00−17nw349793 0.1 101054
7 march, sun
sun700:00−20wnw339939 0.0 101020
03:00−20wsw3310049 0.0 101035
06:00−21sw34100100 0.1 101076
09:00−17ssw5797100 0.1 1008230
12:00−11s61191100 0.0 1006456
15:00−10s91493100 0.3 1002873
18:00−10s81493100 1.1 999890
21:00−9s81592100 1.4 996675